When you browse on this site, cookies collect data to enhance your experience and personalize the content and advertising you see.
Visit our Privacy Policy to learn more. By continuing to use the site, you agree to this use of cookies and data.
  • In Hungary
  • List of Countries
  • For 7 days
  • Water Temperature
  • Satellite Maps
  • Weather Map
  • News
  • Weather Widgets
  • user-avatar
    Login

    Hourly Weather Orlando

    Today, 24 February, Sunday

    Time Temperature Precipitation Wind Pressure Humidity
    00:00 +25°C° 0.3 mm 2 mps 761 mmHg 80%
    01:00 +25°C° 0.3 mm 2 mps 761 mmHg 81%
    02:00 +25°C° 0 mm 2 mps 761 mmHg 82%
    03:00 +24°C° 0 mm 3 mps 760 mmHg 84%
    04:00 +24°C° 0 mm 3 mps 760 mmHg 85%
    05:00 +24°C° 0 mm 3 mps 760 mmHg 87%
    06:00 +22°C° 0 mm 3 mps 760 mmHg 90%
    07:00 +22°C° 0 mm 3 mps 760 mmHg 92%
    08:00 +25°C° 0 mm 4 mps 760 mmHg 84%
    09:00 +26°C° 0 mm 4 mps 761 mmHg 75%
    10:00 +28°C° 0 mm 5 mps 761 mmHg 67%
    11:00 +29°C° 0 mm 5 mps 761 mmHg 59%
    12:00 +30°C° 0 mm 6 mps 760 mmHg 51%
    13:00 +33°C° 0 mm 6 mps 760 mmHg 43%
    14:00 +33°C° 0 mm 6 mps 760 mmHg 43%
    15:00 +32°C° 0 mm 6 mps 760 mmHg 43%
    16:00 +32°C° 0 mm 6 mps 759 mmHg 43%
    17:00 +30°C° 0 mm 5 mps 760 mmHg 50%
    18:00 +28°C° 0 mm 4 mps 760 mmHg 58%
    19:00 +27°C° 0 mm 4 mps 760 mmHg 65%
    20:00 +26°C° 0 mm 4 mps 761 mmHg 67%
    21:00 +25°C° 0 mm 4 mps 761 mmHg 69%
    22:00 +23°C° 0 mm 4 mps 762 mmHg 71%
    23:00 +22°C° 0 mm 4 mps 762 mmHg 63%

    Tomorrow, 25 February, Monday

    Time Temperature Precipitation Wind Pressure Humidity
    00:00 +21°C° 0 mm 4 mps 763 mmHg 55%
    01:00 +20°C° 0 mm 4 mps 763 mmHg 46%
    02:00 +19°C° 0 mm 5 mps 763 mmHg 46%
    03:00 +19°C° 0 mm 5 mps 763 mmHg 45%
    04:00 +17°C° 0 mm 5 mps 764 mmHg 44%
    05:00 +16°C° 0 mm 5 mps 764 mmHg 45%
    06:00 +16°C° 0 mm 5 mps 765 mmHg 46%
    07:00 +15°C° 0 mm 5 mps 765 mmHg 47%
    08:00 +16°C° 0 mm 5 mps 766 mmHg 47%
    09:00 +17°C° 0 mm 5 mps 766 mmHg 47%
    10:00 +19°C° 0 mm 6 mps 767 mmHg 48%
    11:00 +20°C° 0 mm 6 mps 767 mmHg 47%
    12:00 +22°C° 0 mm 6 mps 767 mmHg 47%
    13:00 +23°C° 0 mm 6 mps 767 mmHg 46%
    14:00 +23°C° 0 mm 6 mps 766 mmHg 45%
    15:00 +23°C° 0 mm 6 mps 766 mmHg 45%
    16:00 +23°C° 0 mm 6 mps 766 mmHg 44%
    17:00 +21°C° 0 mm 6 mps 766 mmHg 48%
    18:00 +20°C° 0 mm 5 mps 766 mmHg 53%
    19:00 +19°C° 0 mm 4 mps 766 mmHg 57%
    20:00 +19°C° 0 mm 4 mps 767 mmHg 60%
    21:00 +18°C° 0 mm 4 mps 767 mmHg 62%
    22:00 +18°C° 0 mm 3 mps 767 mmHg 65%
    23:00 +18°C° 0 mm 3 mps 767 mmHg 67%

    Day after tomorrow, 26 February, Tuesday

    Time Temperature Precipitation Wind Pressure Humidity
    00:00 +18°C° 0 mm 3 mps 767 mmHg 69%
    01:00 +18°C° 0 mm 3 mps 766 mmHg 70%
    02:00 +18°C° 0 mm 3 mps 766 mmHg 73%
    03:00 +18°C° 0 mm 3 mps 766 mmHg 75%
    04:00 +18°C° 0 mm 2 mps 766 mmHg 77%
    05:00 +18°C° 0 mm 3 mps 766 mmHg 76%
    06:00 +18°C° 0 mm 3 mps 766 mmHg 75%
    07:00 +19°C° 0 mm 4 mps 766 mmHg 74%
    08:00 +20°C° 0 mm 3 mps 767 mmHg 71%
    09:00 +21°C° 0 mm 3 mps 767 mmHg 67%
    10:00 +22°C° 0 mm 3 mps 767 mmHg 64%
    11:00 +21°C° 0.6 mm 3 mps 767 mmHg 67%
    12:00 +21°C° 0.6 mm 4 mps 767 mmHg 69%
    13:00 +21°C° 0.6 mm 4 mps 767 mmHg 72%
    14:00 +22°C° 0 mm 4 mps 766 mmHg 67%
    15:00 +23°C° 0 mm 4 mps 766 mmHg 63%
    16:00 +25°C° 0 mm 4 mps 765 mmHg 58%
    17:00 +23°C° 0 mm 4 mps 765 mmHg 62%
    18:00 +22°C° 0 mm 4 mps 765 mmHg 66%
    19:00 +21°C° 0 mm 3 mps 765 mmHg 70%
    20:00 +21°C° 0 mm 3 mps 765 mmHg 72%
    21:00 +21°C° 0 mm 3 mps 766 mmHg 75%
    22:00 +21°C° 0 mm 3 mps 766 mmHg 77%
    23:00 +21°C° 0 mm 3 mps 765 mmHg 79%

    27 February, Wednesday

    Time Temperature Precipitation Wind Pressure Humidity
    00:00 +21°C° 0 mm 2 mps 765 mmHg 81%
    01:00 +20°C° 0 mm 2 mps 764 mmHg 83%
    02:00 +20°C° 0 mm 2 mps 764 mmHg 85%
    03:00 +20°C° 0 mm 2 mps 763 mmHg 87%
    04:00 +20°C° 0 mm 2 mps 763 mmHg 89%
    05:00 +20°C° 0 mm 2 mps 763 mmHg 90%
    06:00 +20°C° 0 mm 2 mps 763 mmHg 92%
    07:00 +20°C° 0 mm 2 mps 763 mmHg 93%
    08:00 +21°C° 0.2 mm 3 mps 763 mmHg 85%
    09:00 +24°C° 0.2 mm 3 mps 764 mmHg 77%
    10:00 +26°C° 0.2 mm 4 mps 764 mmHg 68%
    11:00 +27°C° 0.5 mm 4 mps 763 mmHg 65%
    12:00 +28°C° 0.5 mm 3 mps 763 mmHg 62%
    13:00 +28°C° 0.5 mm 3 mps 762 mmHg 58%
    14:00 +28°C° 2.2 mm 3 mps 761 mmHg 60%
    15:00 +28°C° 2.2 mm 2 mps 761 mmHg 61%
    16:00 +27°C° 2.2 mm 2 mps 760 mmHg 63%
    17:00 +27°C° 1.9 mm 2 mps 760 mmHg 68%
    18:00 +26°C° 1.9 mm 1 mps 761 mmHg 72%
    19:00 +25°C° 1.9 mm 1 mps 761 mmHg 77%
    20:00 +24°C° 0 mm 1 mps 761 mmHg 79%
    21:00 +24°C° 0 mm 1 mps 761 mmHg 81%
    22:00 +23°C° 0 mm 1 mps 761 mmHg 84%
    23:00 +23°C° 0 mm 1 mps 760 mmHg 84%

    28 February, Thursday

    Time Temperature Precipitation Wind Pressure Humidity
    00:00 +23°C° 0 mm 1 mps 760 mmHg 85%
    01:00 +22°C° 0 mm 1 mps 760 mmHg 86%
    02:00 +21°C° 0 mm 2 mps 759 mmHg 87%
    03:00 +21°C° 0 mm 2 mps 759 mmHg 88%
    04:00 +21°C° 0 mm 2 mps 759 mmHg 89%
    05:00 +20°C° 0 mm 2 mps 759 mmHg 90%
    06:00 +20°C° 0 mm 2 mps 759 mmHg 91%
    07:00 +20°C° 0 mm 2 mps 759 mmHg 92%
    08:00 +23°C° 0 mm 2 mps 759 mmHg 84%
    09:00 +25°C° 0 mm 3 mps 759 mmHg 77%
    10:00 +26°C° 0 mm 3 mps 760 mmHg 70%
    11:00 +28°C° 0.1 mm 4 mps 759 mmHg 65%
    12:00 +29°C° 0.1 mm 4 mps 759 mmHg 60%
    13:00 +30°C° 0.1 mm 5 mps 758 mmHg 55%
    14:00 +30°C° 0.8 mm 5 mps 758 mmHg 55%
    15:00 +29°C° 0.8 mm 5 mps 758 mmHg 56%
    16:00 +29°C° 0.8 mm 5 mps 757 mmHg 56%
    17:00 +28°C° 0.1 mm 4 mps 757 mmHg 60%
    18:00 +27°C° 0.1 mm 4 mps 758 mmHg 64%
    19:00 +26°C° 0.1 mm 4 mps 758 mmHg 67%
    20:00 +25°C° 0 mm 3 mps 758 mmHg 70%
    21:00 +25°C° 0 mm 3 mps 758 mmHg 72%
    22:00 +24°C° 0 mm 3 mps 758 mmHg 74%
    23:00 +24°C° 0 mm 3 mps 758 mmHg 75%

    1 March, Friday

    Time Temperature Precipitation Wind Pressure Humidity
    00:00 +24°C° 0 mm 3 mps 758 mmHg 77%
    01:00 +24°C° 0 mm 3 mps 758 mmHg 79%
    02:00 +23°C° 0 mm 2 mps 758 mmHg 80%
    03:00 +23°C° 0 mm 2 mps 758 mmHg 82%
    04:00 +23°C° 0 mm 2 mps 757 mmHg 83%
    05:00 +21°C° 0 mm 2 mps 758 mmHg 85%
    06:00 +21°C° 0 mm 2 mps 758 mmHg 87%
    07:00 +21°C° 0 mm 2 mps 758 mmHg 89%
    08:00 +23°C° 0 mm 2 mps 759 mmHg 81%
    09:00 +25°C° 0 mm 2 mps 759 mmHg 73%
    10:00 +26°C° 0 mm 2 mps 760 mmHg 65%
    11:00 +27°C° 0 mm 2 mps 759 mmHg 61%
    12:00 +28°C° 0 mm 2 mps 759 mmHg 57%
    13:00 +29°C° 0 mm 2 mps 759 mmHg 53%
    14:00 +29°C° 0.1 mm 2 mps 759 mmHg 52%
    15:00 +29°C° 0.1 mm 2 mps 759 mmHg 52%
    16:00 +29°C° 0.1 mm 2 mps 758 mmHg 51%
    17:00 +28°C° 0 mm 2 mps 758 mmHg 54%
    18:00 +27°C° 0 mm 1 mps 759 mmHg 58%
    19:00 +26°C° 0 mm 1 mps 759 mmHg 61%
    20:00 +26°C° 0 mm 1 mps 759 mmHg 66%
    21:00 +25°C° 0 mm 1 mps 759 mmHg 71%
    22:00 +24°C° 0 mm 2 mps 759 mmHg 75%
    23:00 +24°C° 0 mm 2 mps 759 mmHg 77%
    Show more